Temp
-7 -7 -7 -7 -7 -7 -7 -7 -7 -7 -7 -7 -7 -7 -7 -7 -8 -8 -8 -8 -8 -8 -9 -9 -9 -9 -9 -9 -8 -8 -8 -8 -8 -7 -7 -8 -8 -8 -8 -8 -8 -8 -9
-7 -7 -7 -7 -7 -7 -7 -7 -7 -7 -8 -8 -8 -8 -8 -8 -8 -8 -9 -9 -9 -9 -9 -9 -9 -9 -9 -9 -8 -8 -8 -8 -8 -7 -8 -7 -8 -8 -8 -8 -9 -8 -9
-7 -7 -7 -7 -7 -7 -7 -8 -8 -8 -8 -8 -9 -9 -9 -9 -9 -9 -9 -9 -9 -9 -9 -9 -9 -10 -9 -9 -9 -8 -8 -8 -8 -8 -7 -7 -8 -8 -8 -7 -8 -8 -8
-7 -7 -8 -8 -8 -8 -8 -8 -8 -8 -9 -9 -10 -9 -9 -9 -10 -9 -9 -10 -9 -9 -9 -9 -10 -9 -9 -10 -10 -9 -9 -9 -8 -8 -8 -8 -8 -8 -8 -8 -8 -8 -8
-7 -8 -8 -8 -8 -8 -8 -9 -9 -9 -9 -10 -10 -10 -10 -10 -10 -10 -10 -10 -9 -9 -9 -10 -10 -9 -9 -10 -10 -10 -9 -8 -8 -8 -8 -8 -7 -8 -8 -8 -9 -9 -9
-7 -7 -8 -8 -8 -8 -9 -10 -9 -9 -10 -10 -10 -11 -11 -10 -10 -10 -10 -10 -10 -9 -9 -11 -11 -10 -10 -9 -9 -9 -9 -8 -9 -9 -9 -8 -8 -8 -8 -8 -9 -9 -9
-7 -7 -8 -8 -8 -9 -9 -9 -10 -10 -10 -11 -11 -11 -11 -11 -10 -11 -10 -10 -10 -9 -10 -10 -10 -10 -10 -9 -9 -9 -9 -9 -9 -9 -9 -9 -8 -8 -8 -8 -9 -9 -9
-8 -7 -8 -8 -8 -9 -9 -10 -10 -11 -11 -11 -11 -11 -11 -11 -11 -11 -11 -10 -10 -10 -10 -10 -10 -10 -10 -9 -9 -10 -10 -9 -9 -8 -8 -9 -9 -9 -9 -9 -9 -9 -8
-8 -8 -9 -9 -9 -10 -10 -11 -11 -11 -11 -12 -12 -12 -11 -12 -11 -11 -11 -10 -10 -10 -9 -11 -10 -10 -10 -10 -10 -10 -10 -9 -9 -9 -9 -9 -9 -9 -9 -9 -9 -8 -9
-9 -9 -9 -10 -10 -10 -11 -11 -11 -11 -12 -12 -12 -12 -12 -12 -12 -11 -10 -11 -11 -10 -8 -10 -9 -10 -10 -10 -10 -10 -10 -10 -10 -9 -10 -10 -9 -9 -9 -10 -9 -9 -9
-9 -10 -10 -10 -11 -11 -12 -12 -13 -13 -13 -13 -13 -12 -13 -12 -12 -11 -12 -11 -11 -12 -11 -10 -9 -9 -10 -10 -10 -10 -10 -11 -11 -10 -10 -10 -9 -9 -10 -10 -9 -9 -10
-10 -10 -9 -11 -11 -11 -12 -12 -13 -12 -13 -14 -14 -13 -13 -12 -12 -13 -14 -12 -11 -12 -12 -10 -10 -9 -10 -10 -10 -11 -11 -10 -10 -10 -10 -10 -10 -10 -10 -10 -10 -9 -9
-10 -11 -11 -12 -12 -12 -13 -13 -13 -12 -13 -14 -14 -13 -13 -12 -13 -14 -14 -13 -13 -13 -12 -11 -10 -10 -10 -10 -10 -10 -10 -10 -10 -10 -9 -9 -10 -10 -10 -10 -10 -10 -10
-10 -10 -11 -11 -12 -12 -13 -13 -13 -13 -14 -14 -14 -13 -13 -13 -14 -15 -15 -15 -14 -13 -12 -12 -11 -10 -10 -10 -10 -10 -10 -10 -10 -10 -10 -10 -10 -10 -10 -10 -10 -10 -9
-10 -10 -11 -12 -11 -12 -13 -13 -13 -14 -13 -13 -14 -13 -13 -14 -15 -15 -15 -15 -16 -15 -13 -12 -11 -11 -10 -10 -10 -10 -10 -10 -11 -10 -10 -10 -10 -10 -10 -10 -10 -10 -10
-11 -11 -11 -12 -13 -13 -13 -13 -14 -14 -14 -14 -14 -14 -14 -15 -15 -15 -15 -15 -16 -15 -16 -15 -16 -15 -14 -13 -12 -11 -10 -10 -10 -10 -10 -10 -10 -10 -10 -10 -10 -10 -10
-11 -12 -12 -12 -12 -12 -13 -14 -14 -14 -14 -14 -15 -15 -15 -15 -15 -15 -15 -15 -17 -16 -16 -17 -16 -16 -16 -15 -15 -15 -14 -13 -11 -11 -11 -11 -11 -11 -10 -10 -10 -10 -9
-11 -12 -12 -12 -12 -13 -14 -15 -15 -15 -15 -15 -15 -15 -15 -15 -15 -16 -15 -14 -17 -17 -16 -16 -16 -16 -15 -14 -14 -13 -12 -12 -12 -12 -12 -12 -12 -11 -11 -11 -11 -11 -10
-12 -12 -12 -13 -13 -13 -14 -14 -15 -15 -15 -15 -15 -15 -16 -16 -16 -16 -15 -15 -16 -16 -16 -16 -16 -15 -15 -14 -14 -14 -13 -12 -12 -12 -12 -12 -12 -12 -12 -11 -11 -11 -11
-13 -12 -14 -14 -14 -14 -15 -15 -15 -15 -15 -15 -14 -15 -15 -16 -16 -16 -15 -15 -16 -15 -15 -15 -15 -14 -14 -14 -14 -14 -13 -13 -12 -12 -12 -12 -11 -11 -11 -11 -11 -11 -11
-12 -14 -14 -14 -14 -14 -14 -14 -15 -15 -14 -14 -15 -15 -14 -15 -15 -16 -15 -16 -15 -15 -14 -14 -14 -13 -14 -13 -13 -13 -13 -12 -12 -12 -12 -11 -12 -12 -12 -12 -11 -11 -12
-14 -13 -13 -14 -14 -14 -14 -14 -15 -15 -15 -15 -15 -15 -14 -15 -15 -15 -15 -15 -15 -15 -14 -14 -14 -14 -13 -13 -13 -13 -13 -13 -13 -13 -13 -13 -12 -12 -12 -12 -12 -12 -12
-14 -14 -13 -13 -13 -14 -14 -14 -15 -15 -15 -15 -15 -15 -15 -15 -15 -15 -15 -15 -15 -14 -14 -14 -14 -14 -14 -13 -13 -13 -13 -13 -13 -13 -14 -14 -14 -14 -14 -14 -14 -14 -14
-14 -15 -15 -14 -13 -13 -14 -14 -14 -14 -14 -15 -15 -15 -15 -15 -15 -15 -15 -15 -14 -15 -14 -14 -14 -14 -14 -14 -14 -14 -14 -14 -14 -15 -15 -15 -15 -15 -15 -15 -15 -15 -15
-14 -14 -14 -13 -13 -14 -14 -14 -15 -15 -16 -15 -15 -15 -15 -15 -15 -15 -15 -15 -15 -14 -15 -15 -15 -14 -14 -15 -14 -14 -15 -15 -15 -15 -15 -16 -16 -15 -15 -15 -15 -15 -15
-14 -14 -14 -14 -14 -14 -15 -15 -16 -16 -16 -15 -15 -15 -15 -15 -16 -16 -15 -15 -15 -15 -15 -15 -15 -15 -15 -15 -15 -16 -16 -16 -16 -16 -16 -16 -16 -16 -16 -15 -15 -15 -15
Height
5912 5909 5906 5902 5899 5896 5893 5889 5885 5880 5876 5871 5866 5861 5856 5851 5845 5840 5835 5831 5825 5821 5816 5811 5808 5803 5800 5796 5793 5792 5791 5789 5787 5806 5804 5808 5807 5810 5812 5812 5814 5818 5817
5906 5902 5898 5895 5892 5889 5885 5880 5876 5871 5866 5861 5856 5850 5844 5839 5834 5828 5822 5817 5813 5808 5803 5798 5793 5787 5781 5778 5776 5775 5773 5775 5772 5783 5788 5794 5798 5797 5800 5803 5801 5802 5805
5898 5894 5891 5888 5885 5880 5877 5872 5867 5862 5857 5851 5845 5839 5833 5828 5822 5816 5810 5804 5798 5792 5787 5781 5773 5765 5762 5756 5754 5754 5754 5756 5755 5760 5773 5774 5785 5788 5791 5794 5796 5792 5796
5891 5886 5884 5881 5877 5871 5867 5862 5857 5852 5846 5840 5834 5828 5822 5814 5808 5802 5796 5790 5783 5776 5768 5759 5748 5742 5737 5732 5729 5732 5733 5734 5738 5740 5752 5757 5764 5773 5774 5778 5780 5786 5787
5885 5878 5874 5872 5866 5861 5856 5851 5847 5841 5836 5830 5823 5817 5809 5803 5797 5789 5782 5773 5767 5760 5750 5738 5726 5718 5712 5706 5705 5708 5710 5714 5718 5722 5733 5741 5748 5755 5762 5766 5766 5770 5774
5876 5870 5864 5860 5856 5851 5846 5841 5835 5831 5826 5820 5814 5807 5798 5792 5784 5777 5768 5760 5751 5742 5733 5721 5707 5699 5694 5690 5690 5691 5693 5697 5702 5706 5715 5725 5735 5741 5745 5752 5755 5759 5770
5865 5860 5856 5850 5845 5840 5835 5830 5825 5822 5816 5809 5804 5796 5788 5780 5771 5764 5756 5747 5736 5725 5716 5704 5697 5688 5684 5681 5680 5680 5681 5684 5688 5693 5700 5709 5717 5727 5734 5738 5744 5751 5757
5853 5848 5844 5839 5835 5830 5824 5819 5816 5810 5804 5799 5793 5786 5778 5769 5761 5754 5747 5736 5722 5711 5703 5693 5687 5681 5675 5672 5670 5668 5670 5672 5676 5680 5687 5697 5705 5712 5721 5728 5735 5741 5748
5842 5837 5832 5828 5824 5818 5812 5809 5804 5798 5793 5788 5782 5775 5767 5760 5752 5744 5737 5724 5712 5699 5692 5684 5678 5673 5669 5665 5662 5663 5663 5664 5666 5671 5679 5687 5696 5703 5711 5719 5726 5731 5736
5828 5823 5819 5815 5810 5805 5801 5797 5793 5788 5782 5777 5774 5767 5759 5752 5743 5735 5726 5713 5704 5692 5684 5678 5673 5669 5664 5663 5661 5660 5658 5659 5662 5667 5674 5682 5689 5696 5702 5709 5716 5719 5725
5815 5811 5806 5800 5796 5794 5790 5786 5782 5775 5771 5766 5762 5759 5752 5745 5737 5726 5716 5705 5698 5690 5679 5674 5668 5668 5664 5662 5660 5659 5658 5659 5662 5666 5670 5676 5682 5688 5694 5701 5707 5713 5718
5802 5798 5793 5788 5785 5782 5779 5776 5770 5765 5761 5756 5750 5750 5744 5738 5731 5720 5709 5699 5693 5688 5682 5674 5669 5667 5664 5661 5660 5658 5658 5658 5660 5664 5667 5672 5678 5683 5687 5694 5697 5702 5707
5784 5782 5781 5774 5771 5769 5768 5764 5760 5756 5751 5746 5744 5741 5736 5731 5725 5716 5705 5695 5690 5686 5680 5675 5670 5665 5663 5663 5660 5659 5660 5659 5661 5662 5667 5667 5672 5678 5683 5687 5691 5697 5701
5774 5772 5767 5764 5764 5761 5757 5754 5751 5746 5743 5740 5736 5734 5730 5726 5721 5714 5704 5695 5687 5683 5679 5674 5669 5667 5663 5662 5662 5661 5661 5662 5663 5665 5667 5668 5670 5674 5679 5683 5687 5691 5695
5767 5759 5759 5756 5754 5750 5747 5744 5740 5738 5736 5732 5729 5727 5725 5720 5716 5712 5704 5695 5688 5682 5677 5674 5669 5665 5664 5662 5662 5662 5662 5662 5664 5665 5667 5669 5671 5674 5677 5680 5682 5685 5688
5759 5754 5751 5747 5742 5739 5736 5735 5734 5731 5728 5725 5724 5722 5720 5715 5712 5708 5702 5693 5689 5684 5678 5673 5671 5666 5664 5661 5661 5661 5661 5662 5663 5665 5666 5667 5669 5671 5673 5675 5677 5679 5682
5749 5744 5739 5735 5732 5729 5727 5726 5722 5720 5719 5717 5718 5718 5715 5711 5708 5705 5701 5694 5690 5687 5682 5677 5672 5673 5672 5666 5665 5663 5662 5661 5662 5664 5666 5666 5667 5668 5669 5671 5672 5674 5675
5736 5732 5729 5726 5722 5717 5714 5713 5712 5711 5711 5710 5712 5713 5709 5706 5704 5701 5698 5695 5693 5689 5685 5681 5677 5673 5673 5671 5671 5669 5668 5668 5668 5668 5669 5669 5668 5669 5669 5669 5669 5670 5670
5725 5722 5718 5715 5712 5710 5709 5708 5708 5707 5706 5705 5708 5707 5706 5704 5701 5698 5695 5694 5692 5690 5688 5684 5680 5677 5675 5673 5672 5670 5670 5670 5670 5670 5669 5669 5669 5669 5669 5669 5669 5669 5669
5714 5709 5708 5706 5704 5703 5702 5700 5702 5704 5701 5699 5701 5701 5702 5699 5698 5696 5694 5692 5692 5690 5688 5686 5681 5680 5679 5677 5675 5673 5672 5672 5670 5670 5669 5668 5668 5667 5667 5668 5667 5666 5666
5703 5702 5703 5703 5700 5698 5697 5695 5696 5697 5695 5695 5696 5695 5695 5693 5692 5691 5691 5689 5689 5688 5686 5683 5680 5680 5679 5676 5674 5672 5672 5670 5668 5668 5667 5667 5666 5664 5663 5663 5662 5662 5661
5699 5698 5697 5696 5695 5693 5691 5690 5691 5692 5691 5692 5691 5691 5692 5689 5688 5687 5687 5686 5685 5685 5684 5681 5678 5678 5676 5673 5672 5670 5668 5667 5665 5664 5663 5661 5661 5659 5658 5657 5656 5655 5654
5693 5692 5691 5688 5687 5687 5685 5687 5687 5688 5687 5689 5687 5684 5687 5687 5685 5683 5683 5683 5681 5681 5679 5677 5676 5673 5671 5670 5667 5665 5663 5662 5660 5658 5657 5656 5655 5654 5653 5652 5651 5650 5649
5689 5687 5686 5685 5680 5679 5680 5681 5681 5682 5681 5682 5681 5680 5682 5682 5680 5678 5679 5678 5677 5677 5674 5672 5670 5669 5667 5664 5662 5660 5658 5656 5655 5653 5653 5652 5650 5648 5647 5646 5645 5644 5642
5686 5684 5681 5677 5674 5675 5676 5678 5678 5678 5678 5678 5676 5676 5675 5675 5674 5674 5673 5674 5673 5672 5670 5668 5664 5663 5663 5659 5656 5654 5653 5651 5650 5649 5647 5646 5644 5642 5641 5639 5636 5634 5631
5679 5679 5676 5675 5674 5673 5673 5674 5673 5674 5672 5671 5671 5669 5669 5669 5667 5669 5667 5667 5666 5665 5663 5662 5661 5658 5654 5652 5651 5649 5648 5647 5645 5644 5642 5640 5638 5635 5632 5630 5626 5623 5620
Wind_Speed
27 30 32 35 37 38 40 41 43 45 46 49 51 54 54 56 57 56 55 54 54 52 49 50 51 53 53 54 54 54 53 55 55 41 43 41 42 40 38 39 46 45 50
31 34 36 37 38 41 43 45 47 49 50 53 55 57 58 58 57 58 56 55 52 49 52 54 57 61 62 60 58 57 57 55 56 48 47 45 43 42 36 39 44 44 38
34 36 39 40 41 43 45 47 50 52 53 56 57 58 59 59 56 55 54 53 54 55 56 60 62 61 62 63 63 62 59 59 60 55 48 50 48 45 44 39 44 52 54
37 39 39 42 45 47 48 50 53 55 57 58 58 58 59 57 56 55 55 56 58 58 64 61 65 64 61 60 60 62 60 59 59 60 54 52 50 48 48 42 42 46 44
38 41 43 45 49 50 51 53 57 58 59 58 59 59 58 57 57 56 57 58 60 64 60 62 62 63 54 50 56 50 59 61 61 59 56 54 51 49 46 45 45 46 44
39 43 46 47 51 53 54 56 60 59 59 58 58 55 56 56 57 58 58 61 62 62 60 56 53 51 40 35 36 37 38 41 45 48 44 49 50 49 48 47 48 47 40
42 45 47 51 53 54 56 60 60 57 56 56 54 54 56 56 58 56 59 61 65 64 54 44 41 38 33 31 30 34 36 40 38 40 41 41 45 47 48 48 50 43 41
45 48 50 53 55 57 58 59 56 53 52 52 51 52 55 56 56 56 58 63 63 59 51 41 30 33 33 31 30 29 26 26 31 35 35 35 33 41 45 45 46 43 44
48 50 51 53 55 56 55 53 50 50 49 49 48 48 51 53 53 53 59 59 61 56 38 39 30 24 22 23 16 17 20 21 21 24 28 29 33 35 40 42 44 43 42
49 51 53 53 52 52 51 50 49 50 49 49 46 46 50 48 49 54 55 55 52 55 37 32 26 20 17 17 14 13 13 13 15 21 24 26 29 33 37 39 41 41 40
50 52 51 51 50 46 50 46 50 47 49 46 43 46 46 44 47 51 48 51 43 35 33 35 11 11 11 10 9 9 7 10 13 18 24 29 30 32 34 35 37 36 37
51 51 55 47 52 50 48 42 50 42 39 41 40 44 41 42 44 43 42 44 37 25 18 11 11 9 15 8 6 8 8 10 17 18 18 21 27 30 32 34 34 33 37
63 39 52 57 47 41 40 31 37 31 37 34 33 34 37 38 39 34 36 37 31 31 34 10 6 4 8 8 6 4 4 3 5 11 18 16 22 23 26 28 30 30 32
45 51 36 46 40 40 22 36 34 23 21 26 30 31 34 35 30 27 30 33 31 19 23 30 13 8 10 8 5 4 5 6 6 5 5 7 8 15 22 24 26 26 28
39 36 64 42 51 37 38 52 44 26 26 24 27 29 32 30 24 22 25 30 27 12 10 12 8 7 7 5 2 3 5 6 6 6 9 10 12 15 19 22 24 25 26
50 51 53 52 48 52 55 51 47 34 27 20 27 30 28 23 21 19 20 29 29 14 15 12 23 21 17 8 8 3 5 9 8 9 12 9 10 13 17 19 22 25 26
51 51 48 50 54 58 50 46 38 31 32 32 26 28 22 18 18 17 14 23 27 18 11 16 20 19 19 19 18 19 20 18 11 3 5 5 9 4 10 13 16 16 21
48 46 49 50 47 42 32 23 23 18 19 24 24 22 18 14 15 14 16 14 21 24 19 11 16 17 16 15 13 14 14 13 12 11 11 10 10 10 9 10 6 6 15
43 44 42 37 29 22 17 19 18 14 14 18 22 14 14 17 13 15 14 14 17 18 20 18 13 9 9 13 15 14 12 9 8 7 7 6 5 6 6 5 6 7 8
37 33 32 25 18 18 17 19 13 18 17 15 7 9 13 15 11 13 13 11 15 16 14 11 10 7 6 7 9 11 9 7 7 6 6 6 6 7 8 8 6 7 9
18 8 11 12 10 10 16 18 20 19 14 13 17 18 13 11 10 15 16 14 19 13 10 10 10 7 9 10 10 9 8 7 7 9 10 12 13 14 14 14 15 15 15
17 28 18 17 19 19 17 13 9 9 10 8 11 12 13 12 13 15 17 18 17 13 11 11 13 13 13 14 14 14 14 13 14 15 15 16 17 18 18 18 20 20 21
21 21 21 21 21 17 12 11 8 14 12 14 13 14 14 13 16 17 17 17 15 14 15 15 15 17 17 18 18 17 17 17 17 17 17 16 17 18 18 18 18 19 19
15 16 11 12 17 14 9 12 13 12 12 12 13 13 16 16 16 18 19 18 17 16 18 19 20 20 21 21 20 20 19 17 16 16 16 17 19 21 21 20 21 22 23
19 13 11 10 10 12 10 9 9 10 13 17 19 17 20 22 22 19 20 19 21 19 19 20 24 26 22 23 23 20 18 17 16 17 19 20 21 23 23 25 27 30 32
19 13 12 11 7 5 7 10 11 15 18 21 20 19 16 14 15 18 22 21 21 22 23 24 23 24 28 25 21 17 16 16 18 20 22 24 26 28 30 32 35 38 41
Wind_Direction
306 311 313 314 314 313 311 309 308 309 311 310 309 309 308 307 306 306 308 305 304 302 296 292 291 290 287 284 279 276 274 273 272 267 265 261 265 266 264 261 252 249 243
305 306 307 309 308 308 307 307 307 308 309 309 309 309 308 308 307 307 305 306 302 297 296 295 294 291 286 281 276 273 270 266 266 265 262 261 258 261 262 257 258 246 235
298 301 304 303 304 303 303 303 304 306 308 308 308 307 308 307 307 306 306 304 303 303 300 297 296 289 285 280 274 269 266 265 262 260 255 255 252 254 255 253 247 240 249
295 296 297 298 302 301 302 302 304 305 305 306 307 307 307 306 306 307 307 306 306 307 308 304 298 292 285 281 276 267 263 261 260 259 255 251 250 251 253 255 256 241 246
292 294 297 300 299 299 300 301 301 302 304 307 307 307 306 309 310 310 311 311 311 312 309 305 296 294 293 282 268 269 262 258 258 256 254 247 248 246 249 250 250 245 250
293 294 296 298 297 298 299 299 298 302 305 305 306 307 308 310 312 314 314 312 314 314 314 312 303 303 302 291 277 268 261 256 254 254 251 244 239 238 242 244 244 240 238
292 293 295 296 297 297 296 296 299 303 305 304 307 309 310 312 312 315 315 315 319 318 320 308 302 298 303 293 283 269 264 254 250 253 248 238 233 232 233 237 239 240 237
293 293 294 293 294 294 295 296 301 303 303 306 308 309 310 313 317 318 316 320 318 322 323 306 306 305 303 296 278 277 266 263 251 250 237 228 222 220 226 232 235 240 233
289 291 291 293 293 293 295 298 301 301 304 304 305 310 311 315 318 317 318 321 327 324 333 312 313 313 309 303 294 279 279 264 252 236 218 219 215 220 225 228 229 236 236
291 292 294 295 295 298 300 303 306 305 304 307 311 311 312 317 317 315 321 328 330 331 329 327 314 315 309 302 300 288 266 242 224 216 211 213 217 225 228 230 229 235 234
291 294 296 296 298 304 306 305 312 312 300 299 306 310 313 316 313 320 327 332 334 334 333 336 317 342 341 313 301 292 271 228 216 215 211 212 221 228 231 229 230 234 236
294 294 300 296 301 297 305 296 301 308 305 292 296 303 313 314 317 323 330 331 331 321 346 339 331 340 339 319 310 309 283 235 224 227 229 225 227 228 227 228 234 234 232
296 284 299 296 298 305 311 309 319 317 305 292 307 308 305 311 321 324 331 335 332 318 308 303 82 267 304 333 302 299 261 200 207 201 195 181 203 218 225 229 237 238 239
278 298 302 312 299 308 287 316 314 315 299 305 307 305 306 313 323 321 337 349 337 308 306 311 294 276 273 303 332 290 263 243 256 246 235 238 229 203 216 230 239 239 241
300 280 299 304 294 288 278 306 312 299 290 300 308 308 303 312 319 323 335 355 347 8 332 324 280 231 242 226 238 266 252 243 237 241 237 238 237 236 237 239 244 243 244
291 293 294 297 286 299 309 307 304 307 280 294 303 302 301 316 320 326 337 349 356 5 50 60 41 56 61 86 67 126 232 229 225 244 273 251 232 245 246 246 246 251 250
291 291 291 295 300 299 297 298 298 292 269 281 282 295 297 307 316 323 342 340 344 8 29 68 72 57 45 57 62 61 59 59 82 121 194 110 58 324 270 269 259 260 248
288 290 296 301 300 303 308 297 293 292 281 286 281 287 279 302 311 321 334 341 338 350 18 66 82 87 84 55 52 62 64 67 68 75 64 54 48 44 36 33 13 331 270
290 300 296 298 292 294 292 281 288 255 282 303 299 280 276 281 307 324 333 339 328 335 336 8 36 64 77 54 49 45 35 45 48 45 41 34 29 25 25 29 17 359 341
299 292 289 275 285 278 282 264 305 280 265 291 308 298 289 269 280 297 308 303 317 312 315 316 310 339 351 19 30 36 24 354 346 352 342 343 339 332 327 318 309 299 297
298 288 302 308 267 278 244 268 292 288 297 252 283 296 295 293 282 282 291 308 310 308 305 307 312 328 324 323 323 318 304 291 299 309 309 308 311 307 306 304 301 299 293
264 301 296 273 264 269 280 280 261 267 239 294 317 296 290 285 286 289 290 295 295 294 296 297 306 310 311 313 308 306 303 300 300 300 301 303 304 303 303 302 300 300 297
292 282 284 282 273 267 274 244 270 270 265 263 298 291 289 287 283 283 287 288 284 287 290 291 293 302 305 305 305 305 303 303 304 307 307 307 306 305 305 304 301 300 298
280 277 258 287 261 254 236 267 284 283 282 292 297 296 289 295 285 282 287 283 275 280 282 287 292 294 303 305 303 300 298 299 301 303 303 305 306 306 308 305 303 303 302
258 260 286 326 304 225 217 259 267 271 276 284 295 300 294 295 275 273 280 277 277 278 282 289 292 291 295 302 302 299 299 300 302 303 305 306 306 306 306 304 304 304 302
253 265 292 307 294 226 257 274 280 278 285 287 294 295 291 291 280 271 275 276 275 280 286 288 287 293 300 301 296 292 293 294 297 301 303 303 303 303 302 301 301 300 300